Change the Weather History Date:

Thursday, January 10, 2013

  Actual Average Record
Temperature  
Mean Temperature 36 °F -  
Max Temperature 39 °F 17 °F 57 °F (2012)
Min Temperature 33 °F 0 °F -27 °F (1977)
Degree Days  
Heating Degree Days 29    
Moisture  
Dew Point 28 °F    
Average Humidity 71    
Maximum Humidity 93    
Minimum Humidity 49    
Precipitation  
Precipitation 0.03 in - - ()
Sea Level Pressure  
Sea Level Pressure 29.93 in    
Wind  
Wind Speed 23 mph (South)    
Max Wind Speed 34 mph    
Max Gust Speed 40 mph    
Visibility 9 miles    
Events      
Averages and records for this station are not official NWS values.
T = Trace of Precipitation, MM = Missing Value Source: NWS Daily Summary

Daily Weather History Graph

Daily Weather History Graph

Search for Another Location

Airport or City:

Trip Planner

Search our weather history database for the weather conditions in past years. The results will help you decide how hot, cold, wet, or windy it might be!

Date:

Astronomy

Jan. 10, 2013 Rise Set
Actual Time 7:58 AM CST 5:04 PM CST
Civil Twilight 7:25 AM CST 5:36 PM CST
Nautical Twilight 6:49 AM CST 6:13 PM CST
Astronomical Twilight 6:14 AM CST 6:48 PM CST
Moon 6:38 AM CST (1/10) 4:13 PM CST (1/10)
Length of Visible Light 10h 11m
Length of Day
9h 05m
Waning Crescent, 2% of the Moon is Illuminated
Jan 10
Waning Crescent
Jan 11
New
Jan 18
First Quarter
Jan 26
Full
Feb 3
Last Quarter

Hourly Weather History & Observations

Time (CST) Temp. Windchill Dew Point Humidity Pressure Visibility Wind Dir Wind Speed Gust Speed Precip Events Conditions
12:15 AM 37.4 °F 25.0 °F 28.4 °F 70% 30.15 in 10.0 mi SSW 29.9 mph 36.8 mph N/A   Clear
12:35 AM 37.4 °F 24.2 °F 28.4 °F 70% 30.15 in 10.0 mi SSW 34.5 mph 40.3 mph N/A   Clear
12:55 AM 37.4 °F 25.0 °F 28.4 °F 70% 30.14 in 10.0 mi SSW 29.9 mph 36.8 mph N/A   Clear
1:15 AM 37.4 °F 24.6 °F 28.4 °F 70% 30.14 in 10.0 mi SSW 32.2 mph 36.8 mph N/A   Clear
1:35 AM 39.2 °F 26.8 °F 26.6 °F 61% 30.14 in - SSW 33.4 mph 38.0 mph N/A   Clear
1:55 AM 39.2 °F 27.0 °F 28.4 °F 65% 30.14 in - SSW 32.2 mph 40.3 mph N/A   Clear
2:15 AM 37.4 °F 24.8 °F 28.4 °F 70% 30.14 in - SSW 31.1 mph 36.8 mph N/A   Clear
2:35 AM 37.4 °F 25.2 °F 28.4 °F 70% 30.14 in - SSW 28.8 mph 39.1 mph N/A   Clear
2:55 AM 37.4 °F 25.0 °F 28.4 °F 70% 30.14 in 10.0 mi SSW 29.9 mph 34.5 mph N/A   Clear
3:15 AM 37.4 °F 26.1 °F 28.4 °F 70% 30.14 in 10.0 mi SSW 24.2 mph 29.9 mph N/A   Clear
3:35 AM 37.4 °F 26.1 °F 28.4 °F 70% 30.14 in 10.0 mi SSW 24.2 mph - N/A   Clear
3:55 AM 37.4 °F 26.9 °F 28.4 °F 70% 30.14 in 10.0 mi SSW 20.7 mph - N/A   Clear
4:15 AM 37.4 °F 26.1 °F 28.4 °F 70% 30.13 in 10.0 mi SSW 24.2 mph 29.9 mph N/A   Clear
4:35 AM 37.4 °F 26.1 °F 28.4 °F 70% 30.13 in 10.0 mi SSW 24.2 mph - N/A   Clear
4:55 AM 37.4 °F 26.4 °F 28.4 °F 70% 30.12 in 10.0 mi SSW 23.0 mph - N/A   Clear
5:15 AM 37.4 °F 26.6 °F 28.4 °F 70% 30.12 in 10.0 mi SSW 21.9 mph 26.5 mph N/A   Clear
5:35 AM 37.4 °F 26.9 °F 28.4 °F 70% 30.12 in 10.0 mi South 20.7 mph - N/A   Clear
5:55 AM 35.6 °F 24.2 °F 26.6 °F 70% 30.12 in 10.0 mi South 21.9 mph - N/A   Clear
6:35 AM 35.6 °F 25.2 °F 26.6 °F 70% 30.11 in 10.0 mi South 18.4 mph - N/A   Clear
6:55 AM 35.6 °F 24.2 °F 26.6 °F 70% 30.10 in 10.0 mi SSW 21.9 mph - N/A   Clear
7:15 AM 37.4 °F 26.1 °F 26.6 °F 65% 30.10 in 10.0 mi SSW 24.2 mph 29.9 mph N/A   Clear
7:55 AM 35.6 °F 26.2 °F 26.6 °F 70% 30.10 in 10.0 mi South 15.0 mph 20.7 mph N/A   Clear
8:35 AM 35.6 °F 27.1 °F 26.6 °F 70% 30.10 in 10.0 mi South 12.7 mph - N/A   Clear
8:55 AM 35.6 °F 27.5 °F 24.8 °F 65% 30.10 in 10.0 mi South 11.5 mph - N/A   Clear
9:15 AM 35.6 °F 25.9 °F 24.8 °F 65% 30.09 in 10.0 mi South 16.1 mph - N/A   Clear
9:55 AM 37.4 °F 26.9 °F 21.2 °F 52% 30.07 in 10.0 mi South 20.7 mph 26.5 mph N/A   Clear
10:15 AM 37.4 °F 26.4 °F 21.2 °F 52% 30.06 in 10.0 mi South 23.0 mph - N/A   Clear
10:35 AM 37.4 °F 25.9 °F 21.2 °F 52% 30.05 in 10.0 mi South 25.3 mph 31.1 mph N/A   Clear
10:55 AM 37.4 °F 27.2 °F 21.2 °F 52% 30.04 in 10.0 mi South 19.6 mph 25.3 mph N/A   Clear
11:15 AM 37.4 °F 27.5 °F 21.2 °F 52% 30.02 in 10.0 mi South 18.4 mph 24.2 mph N/A   Clear
11:35 AM 37.4 °F 27.8 °F 21.2 °F 52% 30.00 in 10.0 mi South 17.3 mph 23.0 mph N/A   Clear
11:55 AM 39.2 °F 30.5 °F 23.0 °F 52% 29.98 in 10.0 mi South 16.1 mph - N/A   Clear
12:15 PM 37.4 °F 28.2 °F 24.8 °F 60% 29.96 in 10.0 mi South 16.1 mph 23.0 mph N/A   Clear
12:35 PM 39.2 °F 29.3 °F 23.0 °F 52% 29.94 in 10.0 mi South 20.7 mph 26.5 mph N/A   Clear
12:55 PM 39.2 °F 29.3 °F 21.2 °F 49% 29.92 in 10.0 mi South 20.7 mph 25.3 mph N/A   Clear
1:35 PM 39.2 °F 29.3 °F 23.0 °F 52% 29.90 in 10.0 mi South 20.7 mph 26.5 mph N/A   Clear
1:55 PM 37.4 °F 26.6 °F 24.8 °F 60% 29.90 in 10.0 mi South 21.9 mph - N/A   Mostly Cloudy
2:15 PM 37.4 °F 26.6 °F 26.6 °F 65% 29.90 in 10.0 mi South 21.9 mph 28.8 mph N/A   Overcast
2:35 PM 37.4 °F 26.9 °F 28.4 °F 70% 29.88 in 10.0 mi South 20.7 mph 28.8 mph N/A   Overcast
2:55 PM 37.4 °F 26.9 °F 28.4 °F 70% 29.88 in 10.0 mi South 20.7 mph 25.3 mph N/A   Overcast
3:15 PM 37.4 °F 28.9 °F 28.4 °F 70% 29.87 in 10.0 mi SSE 13.8 mph 23.0 mph N/A   Overcast
3:35 PM 37.4 °F 28.9 °F 28.4 °F 70% 29.86 in 10.0 mi SSE 13.8 mph - N/A   Overcast
3:55 PM 35.6 °F 26.2 °F 28.4 °F 75% 29.86 in 10.0 mi SSE 15.0 mph - N/A   Overcast
4:15 PM 35.6 °F 25.5 °F 28.4 °F 75% 29.84 in 10.0 mi SSE 17.3 mph - N/A   Overcast
4:35 PM 35.6 °F 26.2 °F 28.4 °F 75% 29.82 in 10.0 mi SSE 15.0 mph - N/A   Overcast
4:55 PM 35.6 °F 26.6 °F 28.4 °F 75% 29.81 in 10.0 mi SE 13.8 mph - N/A   Overcast
5:15 PM 35.6 °F 26.6 °F 28.4 °F 75% 29.79 in 10.0 mi SE 13.8 mph - N/A   Overcast
5:35 PM 35.6 °F 27.1 °F 28.4 °F 75% 29.79 in 10.0 mi SE 12.7 mph - N/A   Overcast
5:55 PM 35.6 °F 25.2 °F 28.4 °F 75% 29.76 in 10.0 mi SE 18.4 mph - 0.01 in   Overcast
6:15 PM 33.8 °F 23.2 °F 28.4 °F 81% 29.75 in 10.0 mi SE 17.3 mph - 0.01 in   Overcast
6:35 PM 33.8 °F 23.9 °F 30.2 °F 87% 29.74 in 10.0 mi SE 15.0 mph - 0.02 in   Overcast
6:55 PM 33.8 °F 23.5 °F 30.2 °F 87% 29.76 in 10.0 mi SSE 16.1 mph - 0.02 in   Overcast
7:15 PM 33.8 °F 22.8 °F 30.2 °F 87% 29.74 in 10.0 mi SSE 18.4 mph 23.0 mph N/A   Overcast
7:35 PM 33.8 °F 23.9 °F 30.2 °F 87% 29.72 in 10.0 mi SSE 15.0 mph 20.7 mph N/A   Overcast
7:55 PM 33.8 °F 23.2 °F 30.2 °F 87% 29.71 in 10.0 mi SSE 17.3 mph 20.7 mph N/A   Overcast
8:15 PM 33.8 °F 23.5 °F 30.2 °F 87% 29.70 in 7.0 mi SSE 16.1 mph - N/A   Overcast
8:55 PM 33.8 °F 24.8 °F 30.2 °F 87% 29.69 in 2.5 mi SSE 12.7 mph - N/A   Overcast
9:15 PM 33.8 °F 24.3 °F 30.2 °F 87% 29.68 in 2.5 mi South 13.8 mph - N/A   Overcast
9:35 PM 33.8 °F 24.8 °F 30.2 °F 87% 29.66 in 2.0 mi SSE 12.7 mph - N/A   Overcast
9:55 PM 33.8 °F 24.8 °F 30.2 °F 87% 29.65 in 3.0 mi South 12.7 mph - N/A   Overcast
10:15 PM 33.8 °F 25.8 °F 32.0 °F 93% 29.64 in 5.0 mi SSE 10.4 mph - N/A   Overcast
10:35 PM 35.6 °F 28.6 °F 32.0 °F 87% 29.64 in 5.0 mi SSE 9.2 mph - N/A   Overcast
10:55 PM 35.6 °F 29.2 °F 32.0 °F 87% 29.63 in 5.0 mi SSE 8.1 mph - N/A   Overcast
11:15 PM 35.6 °F 27.5 °F 32.0 °F 87% 29.61 in 7.0 mi SSE 11.5 mph - N/A   Overcast
11:35 PM 35.6 °F 28.0 °F 33.8 °F 93% 29.60 in 7.0 mi SSE 10.4 mph - N/A   Overcast
11:55 PM 35.6 °F 28.0 °F 32.0 °F 87% 29.59 in 7.0 mi SSE 10.4 mph - N/A   Overcast